Flag for Sweden Weather past 2 weeks in Norrköping, Sweden

Now
39 °F

Passing clouds.


Feels Like: 31 °F
Forecast: 34 / 40 °F
Wind: 14 mph from Southeast

Location: Norrkoping Airport

Current Time: Mar 1, 2015 at 1:51:38 PM

Latest Report: Mar 1, 2015 at 12:50 PM


Visibility: N/A

Pressure: 29.42 "Hg

Humidity: 75%

Dew point: 32 °F

Location of NorrköpingLocation

Historic Weather in Norrköping — Graph

°F

Norrköping temperature yesterday

Maximum temperature yesterday: 41 °F (at 2:20 PM)
Minimum temperature yesterday: 30 °F (at 10:20 PM)
Average temperature yesterday: 35 °F

Past Weeks' High & Low Weather Summary

 TemperatureHumidityPressure
High46 °F (Feb 19, 11:50 AM)100% (Feb 14, 6:50 PM)30.60 "Hg (Feb 14, 6:50 PM)
Low27 °F (Feb 26, 7:50 AM)61% (Feb 25, 12:50 PM)29.15 "Hg (Feb 21, 11:20 PM)
Average36 °F85%29.88 "Hg
* Reported Feb 14 12:20 PM — Mar 1 12:20 PM, Norrköping, Weather by CustomWeather, © 2015

Note: Actual official high and low records may vary slightly from our data, if they occured in-between our weather recording intervals... More about our weather records

Advertising

Norrköping weather history for previous 24 hours

 ConditionsComfort  
Time TempWeatherWind HumidityBarometerVisibility
12:20 PM
Sun, Mar 1
39 °FPassing clouds.14 mph75%29.45 "HgN/A
11:50 AM39 °FPassing clouds.15 mph70%29.47 "HgN/A
11:20 AM39 °FOvercast.16 mph70%29.47 "HgN/A
10:50 AM37 °FPassing clouds.17 mph81%29.50 "HgN/A
10:20 AM37 °FPartly sunny.16 mph81%29.50 "HgN/A
9:50 AM36 °FMostly cloudy.15 mph81%29.53 "HgN/A
9:20 AM34 °FScattered clouds.10 mph87%29.56 "HgN/A
8:50 AM34 °FPassing clouds.10 mph87%29.56 "HgN/A
8:20 AM32 °FChilly.10 mph93%29.59 "HgN/A
7:50 AM32 °FChilly.12 mph93%29.59 "HgN/A
7:20 AM30 °FPartly sunny.12 mph93%29.62 "HgN/A
6:50 AM30 °FLow clouds.10 mph93%29.62 "HgN/A
6:20 AM30 °FPassing clouds.10 mph93%29.62 "HgN/A
5:50 AM28 °FChilly.12 mph100%29.65 "HgN/A
5:20 AM28 °FChilly.13 mph93%29.65 "HgN/A
4:50 AM28 °FChilly.9 mph93%29.65 "HgN/A
4:20 AM28 °FChilly.9 mph93%29.68 "HgN/A
3:50 AM28 °FChilly.9 mph93%29.68 "HgN/A
3:20 AM28 °FChilly.6 mph93%29.71 "HgN/A
2:50 AM28 °FChilly.6 mph93%29.71 "HgN/A
2:20 AM30 °FPassing clouds.6 mph86%29.74 "HgN/A
1:50 AM30 °FOvercast.8 mph86%29.74 "HgN/A
1:20 AM30 °FOvercast.9 mph86%29.74 "HgN/A
12:50 AM30 °FOvercast.7 mph86%29.77 "HgN/A
12:20 AM30 °FOvercast.5 mph86%29.77 "HgN/A
11:50 PM
Sat, Feb 28
30 °FOvercast.7 mph86%29.77 "HgN/A
11:20 PM30 °FPassing clouds.6 mph86%29.80 "HgN/A
10:50 PM32 °FPassing clouds.7 mph80%29.80 "HgN/A
10:20 PM30 °FChilly.6 mph86%29.80 "HgN/A
9:50 PM32 °FChilly.6 mph80%29.80 "HgN/A
9:20 PM32 °FChilly.7 mph87%29.83 "HgN/A
8:50 PM34 °FChilly.7 mph81%29.83 "HgN/A
8:20 PM34 °FChilly.9 mph81%29.83 "HgN/A
7:50 PM34 °FClear.7 mph87%29.86 "Hg10 mi
7:20 PM32 °FClear.5 mph93%29.86 "Hg10 mi
6:50 PM32 °FClear.6 mph87%29.86 "Hg10 mi
6:20 PM32 °FPassing clouds.3 mph87%29.86 "HgN/A
5:50 PM34 °FPassing clouds.3 mph81%29.86 "HgN/A
5:20 PM37 °FPassing clouds.3 mph70%29.86 "HgN/A
4:50 PM37 °FPassing clouds.8 mph70%29.86 "HgN/A
4:20 PM39 °FChilly.8 mph70%29.86 "HgN/A
3:50 PM41 °FQuite cool.8 mph66%29.86 "HgN/A
3:20 PM41 °FPartly sunny.9 mph66%29.86 "HgN/A
2:50 PM41 °FPartly sunny.6 mph70%29.89 "HgN/A
2:20 PM41 °FOvercast.9 mph70%29.89 "HgN/A
1:50 PM39 °FOvercast.9 mph75%29.89 "HgN/A
1:20 PM39 °FOvercast.10 mph75%29.89 "HgN/A
Weather by CustomWeather, © 2015

See weather overviewHow to use our weather pages